Weather History for KLBF - September, 2013

Change the Weather History Date:

Saturday, September 7, 2013

  Actual Average Record
Temperature  
Mean Temperature 79 °F 66 °F  
Max Temperature 99 °F 82 °F 102 °F (1959)
Min Temperature 59 °F 51 °F 34 °F (2010)
Degree Days  
Heating Degree Days 0 3  
Month to date heating degree days 0 15  
Since 1 July heating degree days 13 35  
Cooling Degree Days 14 4  
Month to date cooling degree days 83 31  
Year to date cooling degree days 920 726  
Growing Degree Days 30 (Base 50)    
Moisture  
Dew Point 59 °F    
Average Humidity 55    
Maximum Humidity 84    
Minimum Humidity 26    
Precipitation  
Precipitation 0.00 in 0.05 in 1.03 in (1945)
Month to date precipitation 0.00 0.34  
Year to date precipitation 14.36 16.56  
Snow  
Snow 0.00 in 0.00 in 0.00 in (2002)
Month to date snowfall 0.0 0.0  
Since 1 July snowfall 0.0 0.0  
Since 1 September snowfall 0.0 0.0  
Snow Depth 0.00 in    
Sea Level Pressure  
Sea Level Pressure 29.88 in    
Wind  
Wind Speed 6 mph (ESE)    
Max Wind Speed 14 mph    
Max Gust Speed 18 mph    
Visibility 10 miles    
Events      
T = Trace of Precipitation, MM = Missing Value Source: NWS Daily Summary

Daily Weather History Graph

Daily Weather History Graph

Search for Another Location

Airport or City:

Trip Planner

Search our weather history database for the weather conditions in past years. The results will help you decide how hot, cold, wet, or windy it might be!

Date:

Astronomy

Sep. 07, 2013 Rise Set
Actual Time 7:15 AM CDT 8:04 PM CDT
Civil Twilight 6:47 AM CDT 8:32 PM CDT
Nautical Twilight 6:14 AM CDT 9:05 PM CDT
Astronomical Twilight 5:39 AM CDT 9:40 PM CDT
Moon 9:33 AM CDT (9/7) 9:02 PM CDT (9/7)
Length of Visible Light 13h 45m
Length of Day
12h 49m
Waxing Crescent, 5% of the Moon is Illuminated
Sep 7
Waxing Crescent
Sep 12
First Quarter
Sep 19
Full
Sep 26
Last Quarter
Oct 4
New

Hourly Weather History & Observations

Time (CDT) Temp. Heat Index Dew Point Humidity Pressure Visibility Wind Dir Wind Speed Gust Speed Precip Events Conditions
12:53 AM 75.9 °F - 51.1 °F 42% 29.86 in 10.0 mi West 9.2 mph - N/A   Clear
1:53 AM 72.0 °F - 54.0 °F 53% 29.88 in 10.0 mi Calm Calm - N/A   Clear
2:53 AM 64.9 °F - 55.0 °F 70% 29.88 in 10.0 mi SE 3.5 mph - N/A   Clear
3:53 AM 62.1 °F - 53.1 °F 72% 29.88 in 10.0 mi East 3.5 mph - N/A   Clear
4:53 AM 61.0 °F - 52.0 °F 72% 29.87 in 10.0 mi ESE 3.5 mph - N/A   Clear
5:53 AM 62.1 °F - 53.1 °F 72% 29.88 in 10.0 mi Calm Calm - N/A   Clear
6:53 AM 61.0 °F - 53.1 °F 75% 29.90 in 10.0 mi Calm Calm - N/A   Clear
7:53 AM 62.1 °F - 54.0 °F 75% 29.91 in 10.0 mi Calm Calm - N/A   Clear
8:53 AM 68.0 °F - 57.0 °F 68% 29.91 in 10.0 mi Calm Calm - N/A   Clear
9:53 AM 78.1 °F - 57.0 °F 48% 29.92 in 10.0 mi Calm Calm - N/A   Clear
10:53 AM 86.0 °F 87.3 °F 64.0 °F 48% 29.92 in 10.0 mi East 9.2 mph - N/A   Clear
11:53 AM 91.0 °F 92.6 °F 64.0 °F 41% 29.92 in 10.0 mi East 13.8 mph - N/A   Clear
12:53 PM 93.9 °F 96.1 °F 64.9 °F 38% 29.91 in 10.0 mi SE 11.5 mph - N/A   Clear
1:53 PM 96.1 °F 98.8 °F 64.9 °F 36% 29.89 in 10.0 mi ESE 9.2 mph - N/A   Clear
2:53 PM 97.0 °F 99.3 °F 64.0 °F 34% 29.88 in 10.0 mi SSE 8.1 mph - N/A   Clear
3:53 PM 99.0 °F 99.5 °F 60.1 °F 28% 29.86 in 10.0 mi SE 8.1 mph - N/A   Clear
4:53 PM 99.0 °F 98.1 °F 57.9 °F 25% 29.84 in 10.0 mi ESE 9.2 mph - N/A   Clear
5:53 PM 96.1 °F 95.2 °F 57.9 °F 28% 29.83 in 10.0 mi ESE 11.5 mph - N/A   Clear
6:53 PM 91.9 °F 92.5 °F 62.1 °F 37% 29.84 in 10.0 mi ESE 9.2 mph - N/A   Clear
7:53 PM 82.9 °F 85.0 °F 66.0 °F 56% 29.85 in 10.0 mi ESE 8.1 mph - N/A   Clear
8:53 PM 77.0 °F - 66.0 °F 69% 29.87 in 10.0 mi ESE 8.1 mph - N/A   Clear
9:53 PM 75.0 °F - 66.0 °F 73% 29.87 in 10.0 mi East 6.9 mph - N/A   Clear
10:53 PM 73.0 °F - 66.0 °F 79% 29.87 in 10.0 mi ESE 6.9 mph - N/A   Clear
11:53 PM 71.1 °F - 66.0 °F 84% 29.88 in 10.0 mi East 8.1 mph - N/A   Clear